Weather History for Logansport, IN

Change the Weather History Date:

Friday, February 21, 2014

  Actual Average Record
Temperature  
Mean Temperature 34 °F -  
Max Temperature 35 °F 40 °F 35 °F (2014)
Min Temperature 32 °F 26 °F 21 °F (2013)
Degree Days  
Heating Degree Days 32    
Moisture  
Dew Point 26 °F    
Average Humidity 75    
Maximum Humidity 87    
Minimum Humidity 56    
Precipitation  
Precipitation 0.00 in - - ()
Sea Level Pressure  
Sea Level Pressure 29.73 in    
Wind  
Wind Speed 22 mph (SW)    
Max Wind Speed 37 mph    
Max Gust Speed 46 mph    
Visibility 10 miles    
Events Snow    
Averages and records for this station are not official NWS values.
T = Trace of Precipitation, MM = Missing Value Source: NWS Daily Summary

Daily Weather History Graph

Daily Weather History Graph

Search for Another Location

Airport:

Trip Planner

Search our weather history database for the weather conditions in past years. The results will help you decide how hot, cold, wet, or windy it might be!

Date:

Astronomy

Feb. 21, 2014 Rise Set
Actual Time 7:31 AM EST 6:27 PM EST
Civil Twilight 7:03 AM EST 6:55 PM EST
Nautical Twilight 6:31 AM EST 7:27 PM EST
Astronomical Twilight 5:59 AM EST 7:58 PM EST
Moon 12:22 AM EST (2/21) 10:52 AM EST (2/21)
Length of Visible Light 11h 51m
Length of Day
10h 56m
Waning Gibbous, 61% of the Moon is Illuminated
Feb 21
Waning Gibbous
Feb 22
Last Quarter
Mar 1
New
Mar 8
First Quarter
Mar 16
Full

Hourly Weather History & Observations

Time (EST) Temp. Windchill Dew Point Humidity Pressure Visibility Wind Dir Wind Speed Gust Speed Precip Events Conditions
12:15 AM 35.6 °F 23.4 °F 30.2 °F 81% 29.56 in 10.0 mi WSW 25.3 mph 33.4 mph N/A   Overcast
12:35 AM 35.6 °F 23.4 °F 30.2 °F 81% 29.56 in 10.0 mi WSW 25.3 mph 32.2 mph N/A   Overcast
12:55 AM 35.6 °F 24.8 °F 30.2 °F 81% 29.57 in 10.0 mi WSW 19.6 mph 29.9 mph N/A   Overcast
1:15 AM 35.6 °F 24.2 °F 30.2 °F 81% 29.57 in 10.0 mi WSW 21.9 mph 28.8 mph N/A   Overcast
1:35 AM 33.8 °F 22.5 °F 30.2 °F 87% 29.56 in 10.0 mi WSW 19.6 mph 25.3 mph N/A   Mostly Cloudy
1:55 AM 33.8 °F 24.3 °F 30.2 °F 87% 29.57 in 10.0 mi SW 13.8 mph - N/A   Scattered Clouds
2:15 AM 33.8 °F 23.5 °F 30.2 °F 87% 29.58 in 10.0 mi SW 16.1 mph - N/A   Overcast
2:35 AM 33.8 °F 24.3 °F 30.2 °F 87% 29.59 in 10.0 mi SSW 13.8 mph 23.0 mph N/A   Overcast
2:55 AM 33.8 °F 23.2 °F 30.2 °F 87% 29.60 in 10.0 mi SSW 17.3 mph 24.2 mph N/A   Overcast
3:15 AM 33.8 °F 22.5 °F 30.2 °F 87% 29.60 in 10.0 mi SW 19.6 mph - N/A   Overcast
3:30 AM 33.8 °F 22.5 °F 28.4 °F 81% 29.60 in 10.0 mi SW 19.6 mph 26.5 mph N/A   Overcast
3:55 AM 33.8 °F 22.8 °F 28.4 °F 81% 29.59 in 10.0 mi SW 18.4 mph 21.9 mph N/A   Overcast
4:15 AM 33.8 °F 22.8 °F 30.2 °F 87% 29.58 in 10.0 mi SW 18.4 mph - N/A   Overcast
4:35 AM 33.8 °F 23.5 °F 30.2 °F 87% 29.59 in 10.0 mi SW 16.1 mph - N/A   Overcast
4:55 AM 33.8 °F 22.5 °F 30.2 °F 87% 29.59 in 10.0 mi SW 19.6 mph - N/A   Overcast
5:15 AM 33.8 °F 23.2 °F 30.2 °F 87% 29.60 in 10.0 mi SW 17.3 mph - N/A   Overcast
5:35 AM 33.8 °F 22.8 °F 30.2 °F 87% 29.61 in 10.0 mi SW 18.4 mph - N/A   Overcast
5:55 AM 33.8 °F 22.2 °F 28.4 °F 81% 29.60 in 10.0 mi SW 20.7 mph 26.5 mph N/A   Overcast
6:15 AM 33.8 °F 21.6 °F 28.4 °F 81% 29.61 in 10.0 mi SW 23.0 mph 28.8 mph N/A   Overcast
6:35 AM 33.8 °F 21.9 °F 28.4 °F 81% 29.61 in 10.0 mi WSW 21.9 mph 27.6 mph N/A   Overcast
6:55 AM 33.8 °F 21.6 °F 28.4 °F 81% 29.62 in 10.0 mi WSW 23.0 mph 29.9 mph N/A   Overcast
7:15 AM 33.8 °F 19.6 °F 26.6 °F 75% 29.62 in 10.0 mi WSW 32.2 mph 40.3 mph N/A   Overcast
7:35 AM 33.8 °F 22.5 °F 28.4 °F 81% 29.63 in 10.0 mi WSW 19.6 mph 33.4 mph N/A   Overcast
7:55 AM 33.8 °F 21.3 °F 28.4 °F 81% 29.63 in 10.0 mi WSW 24.2 mph 33.4 mph N/A   Overcast
8:10 AM 33.8 °F 20.5 °F 28.4 °F 81% 29.65 in 10.0 mi WSW 27.6 mph 35.7 mph N/A   Overcast
8:35 AM 32.0 °F 16.5 °F 26.6 °F 80% 29.66 in 10.0 mi WSW 35.7 mph 42.6 mph N/A   Overcast
8:55 AM 32.0 °F 18.1 °F 28.4 °F 87% 29.68 in 7.0 mi WSW 27.6 mph 38.0 mph N/A Snow Light Snow
9:15 AM 32.0 °F 18.9 °F 28.4 °F 87% 29.68 in 10.0 mi WSW 24.2 mph 33.4 mph N/A   Overcast
9:35 AM 32.0 °F 18.6 °F 26.6 °F 80% 29.68 in 10.0 mi WSW 25.3 mph 38.0 mph N/A Snow Light Snow
9:55 AM 32.0 °F 17.2 °F 26.6 °F 80% 29.68 in 10.0 mi WSW 32.2 mph 40.3 mph N/A   Overcast
10:15 AM 32.0 °F 16.3 °F 24.8 °F 75% 29.69 in 10.0 mi WSW 36.8 mph 46.0 mph N/A   Overcast
10:35 AM 32.0 °F 17.0 °F 24.8 °F 75% 29.70 in 10.0 mi West 33.4 mph 38.0 mph N/A   Overcast
10:55 AM 32.0 °F 17.9 °F 24.8 °F 75% 29.70 in 10.0 mi WSW 28.8 mph 34.5 mph N/A   Overcast
11:15 AM 32.0 °F 17.0 °F 23.0 °F 69% 29.71 in 10.0 mi WSW 33.4 mph 38.0 mph N/A   Overcast
11:35 AM 32.0 °F 18.4 °F 24.8 °F 75% 29.72 in 10.0 mi WSW 26.5 mph 36.8 mph N/A   Overcast
11:55 AM 32.0 °F 17.4 °F 24.8 °F 75% 29.74 in 10.0 mi WSW 31.1 mph 39.1 mph N/A   Overcast
12:15 PM 32.0 °F 16.7 °F 23.0 °F 69% 29.75 in 10.0 mi WSW 34.5 mph 44.9 mph N/A   Overcast
12:35 PM 32.0 °F 17.4 °F 23.0 °F 69% 29.75 in 10.0 mi WSW 31.1 mph 40.3 mph N/A   Overcast
12:55 PM 32.0 °F 17.4 °F 23.0 °F 69% 29.75 in 10.0 mi WSW 31.1 mph 42.6 mph N/A   Overcast
1:15 PM 32.0 °F 16.3 °F 23.0 °F 69% 29.76 in 10.0 mi WSW 36.8 mph 42.6 mph N/A   Overcast
1:35 PM 33.8 °F 20.8 °F 24.8 °F 70% 29.77 in 10.0 mi WSW 26.5 mph 36.8 mph N/A   Mostly Cloudy
1:55 PM 33.8 °F 19.6 °F 23.0 °F 65% 29.77 in 10.0 mi WSW 32.2 mph 39.1 mph N/A   Scattered Clouds
2:15 PM 33.8 °F 20.5 °F 23.0 °F 65% 29.77 in 10.0 mi WSW 27.6 mph 39.1 mph N/A   Scattered Clouds
2:35 PM 33.8 °F 19.4 °F 21.2 °F 60% 29.77 in 10.0 mi WSW 33.4 mph 41.4 mph N/A   Scattered Clouds
2:55 PM 33.8 °F 20.1 °F 23.0 °F 65% 29.78 in 10.0 mi WSW 29.9 mph 40.3 mph N/A   Scattered Clouds
3:15 PM 33.8 °F 20.8 °F 21.2 °F 60% 29.78 in 10.0 mi WSW 26.5 mph 40.3 mph N/A   Clear
3:35 PM 33.8 °F 20.5 °F 21.2 °F 60% 29.79 in 10.0 mi WSW 27.6 mph 38.0 mph N/A   Clear
3:55 PM 35.6 °F 22.3 °F 21.2 °F 56% 29.80 in 10.0 mi WSW 31.1 mph 38.0 mph N/A   Clear
4:15 PM 35.6 °F 24.5 °F 21.2 °F 56% 29.81 in 10.0 mi WSW 20.7 mph 36.8 mph N/A   Clear
4:35 PM 35.6 °F 23.4 °F 21.2 °F 56% 29.82 in 10.0 mi WSW 25.3 mph 29.9 mph N/A   Clear
4:55 PM 35.6 °F 22.7 °F 21.2 °F 56% 29.82 in 10.0 mi WSW 28.8 mph - N/A   Clear
5:15 PM 35.6 °F 24.2 °F 21.2 °F 56% 29.82 in 10.0 mi WSW 21.9 mph 26.5 mph N/A   Clear
5:35 PM 35.6 °F 24.8 °F 21.2 °F 56% 29.83 in 10.0 mi WSW 19.6 mph 27.6 mph N/A   Clear
5:55 PM 35.6 °F 24.2 °F 21.2 °F 56% 29.83 in 10.0 mi WSW 21.9 mph 27.6 mph N/A   Clear
6:15 PM 35.6 °F 25.5 °F 21.2 °F 56% 29.84 in 10.0 mi WSW 17.3 mph 28.8 mph N/A   Clear
6:35 PM 35.6 °F 26.6 °F 23.0 °F 60% 29.84 in 10.0 mi SW 13.8 mph - N/A   Clear
6:55 PM 32.0 °F 24.2 °F 24.8 °F 75% 29.85 in 10.0 mi SW 9.2 mph - N/A   Clear
7:15 PM 33.8 °F 25.8 °F 26.6 °F 75% 29.86 in 10.0 mi SW 10.4 mph - N/A   Clear
7:35 PM 33.8 °F 24.8 °F 26.6 °F 75% 29.87 in 10.0 mi SW 12.7 mph - N/A   Clear
7:55 PM 33.8 °F 24.8 °F 26.6 °F 75% 29.87 in 10.0 mi SW 12.7 mph - N/A   Mostly Cloudy
8:15 PM 33.8 °F 25.3 °F 26.6 °F 75% 29.88 in 10.0 mi SW 11.5 mph - N/A   Overcast
8:35 PM 33.8 °F 24.8 °F 26.6 °F 75% 29.87 in 10.0 mi SW 12.7 mph - N/A   Overcast
8:55 PM 33.8 °F 25.3 °F 26.6 °F 75% 29.88 in 10.0 mi SW 11.5 mph - N/A   Overcast
9:15 PM 35.6 °F 28.0 °F 26.6 °F 70% 29.87 in 10.0 mi SSW 10.4 mph - N/A   Overcast
9:35 PM 33.8 °F 25.8 °F 26.6 °F 75% 29.87 in 10.0 mi SW 10.4 mph - N/A   Overcast
9:55 PM 33.8 °F 27.7 °F 26.6 °F 75% 29.88 in 10.0 mi WSW 6.9 mph - N/A   Overcast
10:15 PM 33.8 °F 30.8 °F 28.4 °F 81% 29.88 in 10.0 mi West 3.5 mph - N/A   Overcast
10:35 PM 33.8 °F 29.6 °F 28.4 °F 81% 29.88 in 10.0 mi SW 4.6 mph - N/A   Overcast
10:55 PM 33.8 °F 27.7 °F 26.6 °F 75% 29.88 in 10.0 mi South 6.9 mph - N/A   Overcast
11:15 PM 33.8 °F 25.3 °F 26.6 °F 75% 29.86 in 10.0 mi SSW 11.5 mph 21.9 mph N/A   Overcast
11:35 PM 33.8 °F 25.3 °F 26.6 °F 75% 29.85 in 10.0 mi South 11.5 mph - N/A   Overcast
11:55 PM 33.8 °F 26.4 °F 26.6 °F 75% 29.84 in 10.0 mi South 9.2 mph - N/A   Overcast